Location: Spring Creek
(38.2870°N, 100.2160°W)
Time: 10:37:13
(UTC+00:00)

NOSS 3-3 (C) - Pass Details

Date: 08 May 2021
Orbit: 806 x 1406 km, 63.4° (Epoch: 14 June)

Event Time Altitude Azimuth Distance (km) Brightness Sun altitude
Rises 03:46:16 0° 208° (SSW) 3,327 6.6 -21.6°
Reaches altitude 10° 03:48:36 10° 207° (SSW) 2,427 5.9 -21.9°
Maximum altitude 03:54:10 81° 121° (ESE) 898 3.6 -22.7°
Drops below altitude 10° 04:00:26 10° 35° (NE) 2,725 6.5 -23.5°
Sets 04:03:11 0° 34° (NE) 3,767 7.3 -23.8°
